BAW53M EGLL-MYNN

Flight info

Callsign BAW53M
Flight time N/A
Altitude 32000
Route GOGSI N621 EVTES N514 ADKIK DCT JOZMA DCT GAPLI/M084F320 DCT OMOKO DCT 48N015W 46N020W 43N030W/M084F340 39N040W 35N050W/M084F360 30N060W 27N070W DCT MILLE/N0484F360 DCT ZQA
Aircraft B77W/H-SDE1E2E3FGHIJ2J3J4J5M1RWXY/LB1D1

Departure

Time N/A
Airport London Heathrow Airport (EGLL)

Arrival

Time 2026-05-04 10:57
Airport Lynden Pindling International Airport (MYNN)
Time Latitude Longitude Altitude Speed Heading
2026-05-04 10:46 25.29484 -77.28344 9868 ft 263 kts 252°
2026-05-04 10:46 25.28879 -77.30270 9490 ft 266 kts 252°
2026-05-04 10:47 25.28276 -77.32212 9101 ft 267 kts 252°
2026-05-04 10:47 25.27694 -77.34106 8714 ft 259 kts 252°
2026-05-04 10:47 25.27132 -77.35952 8310 ft 248 kts 252°
2026-05-04 10:47 25.26594 -77.37727 7930 ft 239 kts 252°
2026-05-04 10:49 25.23405 -77.48322 5414 ft 177 kts 251°
2026-05-04 10:49 25.23018 -77.49610 5065 ft 176 kts 251°
2026-05-04 10:50 25.22639 -77.50870 4746 ft 174 kts 250°
2026-05-04 10:51 25.19779 -77.59769 2166 ft 169 kts 224°
2026-05-04 10:52 25.18809 -77.60418 1800 ft 160 kts 198°
2026-05-04 10:52 25.17829 -77.60794 1683 ft 144 kts 216°
2026-05-04 10:52 25.16973 -77.61441 1688 ft 156 kts 201°
2026-05-04 10:54 25.12062 -77.55239 1704 ft 163 kts 137°
2026-05-04 10:54 25.11272 -77.54352 1697 ft 163 kts 138°
2026-05-04 10:56 25.05878 -77.48348 279 ft 155 kts 137°
2026-05-04 10:56 25.05134 -77.47509 40 ft 151 kts 137°
2026-05-04 10:56 25.04450 -77.46742 24 ft 126 kts 136°
2026-05-04 10:57 25.03929 -77.46178 16 ft 81 kts 135°
2026-05-04 10:57 25.03662 -77.45883 17 ft 28 kts 134°
2026-05-04 10:57 25.03625 -77.45822 18 ft 8 kts 110°
2026-05-04 10:57 25.03608 -77.45677 17 ft 20 kts 85°
2026-05-04 10:58 25.03698 -77.45660 17 ft 16 kts 320°
2026-05-04 10:58 25.03780 -77.45747 17 ft 16 kts 316°
2026-05-04 10:58 25.03861 -77.45837 17 ft 16 kts 314°
2026-05-04 10:58 25.03946 -77.45931 17 ft 20 kts 315°
2026-05-04 10:59 25.04071 -77.46071 16 ft 31 kts 314°
2026-05-04 10:59 25.04239 -77.46259 16 ft 35 kts 314°
2026-05-04 10:59 25.04406 -77.46447 17 ft 33 kts 316°
2026-05-04 10:59 25.04568 -77.46623 17 ft 32 kts 314°
2026-05-04 11:00 25.04720 -77.46791 17 ft 31 kts 315°
2026-05-04 11:01 25.04875 -77.46830 17 ft 0 kts 146°